Home > Weather > Winchester > Past weeks

Flag for United Kingdom Weather for the Past 2 Weeks in Winchester, England, United Kingdom

Now
52 °F

Passing clouds.


Feels Like: 48 °F
Forecast: 44 / 56 °F
Wind: 10 mph from Southwest

Location: Middle Wallop

Current Time: May 1, 2016 at 11:55:51 AM

Latest Report: May 1, 2016 at 10:50 AM


Visibility: N/A

Pressure: 30.36 "Hg

Humidity: 58%

Dew Point: 37 °F

Location of WinchesterLocation

Historic Weather in Winchester — Graph

°F

Winchester Temperature Yesterday

Maximum temperature yesterday: 54 °F (at 2:50 PM)
Minimum temperature yesterday: 32 °F (at 5:50 AM)
Average temperature yesterday: 42 °F

High & Low Weather Summary for the Past Weeks

 TemperatureHumidityPressure
High63 °F (Apr 21, 2:50 PM)100% (May 1, 5:50 AM)30.42 "Hg (May 1, 5:50 AM)
Low32 °F (Apr 17, 2:50 AM)32% (Apr 26, 6:50 PM)29.62 "Hg (Apr 16, 9:50 AM)
Average45 °F67%30.06 "Hg
* Reported Apr 16 9:50 AM — May 1 9:50 AM, Winchester, Weather by CustomWeather, © 2016

Note: Actual official high and low records may vary slightly from our data, if they occured in-between our weather recording intervals... More about our weather records

Advertising

Winchester Weather History for the Previous 24 Hours

Scroll right to see more
 ConditionsComfort  
Time TempWeatherWind HumidityBarometerVisibility
9:50 AM
Sun, May 1
50 °FScattered clouds.10 mph62%30.36 "HgN/A
8:50 AM45 °FScattered clouds.5 mph81%30.36 "HgN/A
7:50 AM39 °FSunny.2 mph87%30.36 "HgN/A
6:50 AM34 °FSunny.No wind93%30.36 "HgN/A
5:50 AM34 °FClear.1 mph100%30.36 "HgN/A
4:50 AM36 °FClear.2 mph93%30.33 "HgN/A
3:50 AM37 °FClear.1 mph87%30.33 "HgN/A
2:50 AM37 °FClear.1 mph87%30.33 "HgN/A
1:50 AM37 °FClear.2 mph87%30.33 "HgN/A
12:50 AM37 °FClear.2 mph93%30.33 "HgN/A
11:50 PM
Sat, Apr 30
39 °FClear.3 mph87%30.33 "HgN/A
10:50 PM41 °FClear.3 mph81%30.33 "HgN/A
9:50 PM43 °FPassing clouds.3 mph76%30.30 "HgN/A
8:50 PM43 °FPartly sunny.9 mph81%30.30 "HgN/A
7:50 PM45 °FPartly sunny.10 mph76%30.27 "HgN/A
6:50 PM45 °FPartly sunny.6 mph76%30.27 "HgN/A
5:50 PM46 °FScattered clouds.9 mph66%30.24 "Hg4 mi
4:50 PM46 °FPartly sunny.2 mph66%30.24 "HgN/A
3:50 PM50 °FPartly sunny.10 mph50%30.21 "HgN/A
2:50 PM54 °FPassing clouds.7 mph38%30.18 "HgN/A
1:50 PM50 °FPartly sunny.15 mph47%30.18 "HgN/A
12:50 PM52 °FScattered clouds.10 mph41%30.18 "HgN/A
11:50 AM50 °FScattered clouds.9 mph43%30.15 "HgN/A
Weather by CustomWeather, © 2016

See weather overviewHow to use our weather pages